(376228) = 2011 EH37

Discovered at Mount Lemmon on 2008-09-29 by Mt. Lemmon Survey.

Orbit

Orbit type: Main Belt

Note: WebGL enabled browser required.

epoch2022-01-21.0
epoch JD2459600.5
perihelion date2018-08-15.98895
perihelion JD2458346.48895
argument of perihelion (°)293.45829
ascending node (°)22.10334
inclination (°)15.95283
eccentricity0.0932288
perihelion distance (AU)2.8257330
Tisserand w.r.t. Jupiter3.2
ΔV w.r.t. Earth (km/sec)11.6
semimajor axis (AU)3.1162579
mean anomaly (°)224.67519
mean daily motion (°/day)0.17916520
aphelion distance (AU)3.407
period (years)5.5
P-vector [x]0.70071046
P-vector [y]-0.51204466
P-vector [z]-0.49680491
Q-vector [x]0.70591038
Q-vector [y]0.59853257
Q-vector [z]0.37874702
absolute magnitude15.76
phase slope0.15
uncertainty0
referenceMPO 698588
observations used289
oppositions10
arc length (days)5380
first opposition used2007
last opposition used2022
residual rms (arc-secs)0.71
perturbers coarse indicatorM-v
perturbers precise indicator003Ek
first observation date used2007-08-07.0
last observation date used2022-04-30.0
computer namePan
JD of orbit computation2456700.258667
perihelion JD uncertainty (days)4.4803E-04
argument of perihelion uncertainty (°)8.5139E-05
ascending node uncertainty (°)2.3023E-05
inclination uncertainty (°)1.6626E-05
eccentricity uncertainty 1.0142E-07
perihelion distance uncertainty (AU)3.4166E-07
Minimum Orbit Intersection Distances (in AU)
for orbit epoch: 2458200.5, reference: MPO411304
Mercury2.3985
Venus2.11491
Earth1.85771
Mars1.49667
Jupiter1.94917
Saturn5.93282
Uranus14.8895
Neptune26.7659

Observations

295 total observations over interval: 2007 08 07.60507 – 2022 05 27.190016
These data are available for download (format description).

Date (UT) J2000 RA J2000 Dec Magn Location Ref
2007 08 07.60507 21 41 55.64 -38 05 39.2 19.4 V E12 – Siding Spring Survey MPS 380130
2007 08 07.61566 21 41 54.96 -38 05 40.3 19.1 V E12 – Siding Spring Survey MPS 380130
2007 08 07.62625 21 41 54.34 -38 05 42.7 19.4 V E12 – Siding Spring Survey MPS 380130
2007 08 07.63664 21 41 53.66 -38 05 42.8 19.7 V E12 – Siding Spring Survey MPS 380130
2008 09 29.41455 03 16 35.97 +24 50 25.6 20.7 V G96 – Mt. Lemmon Survey MPS 378835
2008 09 29.41999 03 16 35.83 +24 50 26.5 20.7 V G96 – Mt. Lemmon Survey MPS 378835
2008 09 29.42549 03 16 35.68 +24 50 28.2 20.5 V G96 – Mt. Lemmon Survey MPS 378835
2008 09 29.43149 03 16 35.54 +24 50 29.6 20.6 V G96 – Mt. Lemmon Survey MPS 378835
2008 10 26.21836 02 57 31.35 +26 05 51.0   291 – LPL/Spacewatch II MPS 378835
2008 10 26.23343 02 57 30.46 +26 05 52.2   291 – LPL/Spacewatch II MPS 378835
2008 10 26.24876 02 57 29.58 +26 05 53.7   291 – LPL/Spacewatch II MPS 378835
2008 11 02.26315 02 50 39.80 +26 11 39.4 20.1 V G96 – Mt. Lemmon Survey MPS 378835
2008 11 02.27372 02 50 39.15 +26 11 39.5 20.1 V G96 – Mt. Lemmon Survey MPS 378835
2008 11 02.29475 02 50 37.86 +26 11 40.3 20.0 V G96 – Mt. Lemmon Survey MPS 378835
2008 11 02.30836 02 50 37.03 +26 11 40.8 20.1 V G96 – Mt. Lemmon Survey MPS 378835
2008 11 02.31874 02 50 36.38 +26 11 41.0 20.2 V G96 – Mt. Lemmon Survey MPS 378835
2008 11 02.32907 02 50 35.73 +26 11 41.3 20.1 V G96 – Mt. Lemmon Survey MPS 378835
2008 11 02.33947 02 50 35.12 +26 11 41.5 20.1 V G96 – Mt. Lemmon Survey MPS 378835
2011 03 06.32422 12 38 10.76 +05 07 04.7 20.7 V 691 – Steward Observatory, Kitt Peak-Spacewatch MPS 373644
2011 03 06.34190 12 38 09.97 +05 07 06.8 20.8 V 691 – Steward Observatory, Kitt Peak-Spacewatch MPS 373644
2011 03 06.35960 12 38 09.21 +05 07 09.2 20.6 V 691 – Steward Observatory, Kitt Peak-Spacewatch MPS 373644
2011 03 10.30924 12 35 16.84 +05 15 55.1 20.4 V 691 – Steward Observatory, Kitt Peak-Spacewatch MPS 373644
2011 03 10.32692 12 35 16.02 +05 15 57.4 20.3 V 691 – Steward Observatory, Kitt Peak-Spacewatch MPS 373644
2011 03 10.34462 12 35 15.22 +05 16 00.2 19.9 V 691 – Steward Observatory, Kitt Peak-Spacewatch MPS 373644
2011 03 14.29584 12 32 10.95 +05 24 45.7 20.8 V 691 – Steward Observatory, Kitt Peak-Spacewatch MPS 375717
2011 03 14.31353 12 32 10.08 +05 24 48.3 20.3 V 691 – Steward Observatory, Kitt Peak-Spacewatch MPS 375717
2011 03 14.33121 12 32 09.21 +05 24 50.4 20.4 V 691 – Steward Observatory, Kitt Peak-Spacewatch MPS 375717
2011 03 24.25058 12 23 51.79 +05 45 11.7 20.4 V 703 – Catalina Sky Survey MPS 375717
2011 03 24.25669 12 23 51.43 +05 45 13.3 19.5 V 703 – Catalina Sky Survey MPS 375717
2011 03 24.26279 12 23 51.10 +05 45 13.5 19.9 V 703 – Catalina Sky Survey MPS 375717
2011 03 24.26888 12 23 50.89 +05 45 14.9 19.9 V 703 – Catalina Sky Survey MPS 375717
2011 03 27.33434 12 21 11.77 +05 50 37.1 20.2 V G96 – Mt. Lemmon Survey MPS 375717
2011 03 27.34129 12 21 11.37 +05 50 37.8 20.3 V G96 – Mt. Lemmon Survey MPS 375717
2011 03 27.34831 12 21 11.01 +05 50 38.9 19.5 V G96 – Mt. Lemmon Survey MPS 375717
2011 03 27.35527 12 21 10.65 +05 50 39.6 19.5 V G96 – Mt. Lemmon Survey MPS 375717
2011 04 01.33493 12 16 53.044 +05 58 01.73 20.7 w F51 – Pan-STARRS 1, Haleakala MPS 377307
2011 04 01.34904 12 16 52.333 +05 58 02.91 20.8 w F51 – Pan-STARRS 1, Haleakala MPS 377307
2011 04 01.36409 12 16 51.506 +05 58 04.33 20.8 w F51 – Pan-STARRS 1, Haleakala MPS 377307
2011 04 01.40921 12 16 49.140 +05 58 07.88 20.9 w F51 – Pan-STARRS 1, Haleakala MPS 377307
2013 09 04.47671 00 49 53.837 -04 23 35.05 20.0 w F51 – Pan-STARRS 1, Haleakala MPS 475011
2013 09 04.49169 00 49 53.226 -04 23 35.86 20.1 w F51 – Pan-STARRS 1, Haleakala MPS 475011
2013 09 06.34104 00 48 38.18 -04 25 15.7 20.7 V 703 – Catalina Sky Survey MPS 476350
2013 09 06.34829 00 48 37.80 -04 25 19.9 20.1 V 703 – Catalina Sky Survey MPS 476350
2013 09 06.35571 00 48 37.42 -04 25 21.8 20.7 V 703 – Catalina Sky Survey MPS 476350
2013 09 06.36309 00 48 37.14 -04 25 20.6 20.3 V 703 – Catalina Sky Survey MPS 476350
2013 09 08.26510 00 47 15.95 -04 27 12.5 20.8 G G45 – Space Surveillance Telescope, Atom Site MPS 1610205
2013 09 08.28427 00 47 15.11 -04 27 14.2 19.3 G G45 – Space Surveillance Telescope, Atom Site MPS 1610205
2013 09 08.30090 00 47 14.36 -04 27 14.5 20.5 G G45 – Space Surveillance Telescope, Atom Site MPS 1610205
2013 09 08.31576 00 47 13.66 -04 27 15.1 20.0 G G45 – Space Surveillance Telescope, Atom Site MPS 1610205
2013 09 09.45800 00 46 22.971 -04 28 23.11 19.9 w F51 – Pan-STARRS 1, Haleakala MPS 476350
2013 09 09.47268 00 46 22.283 -04 28 23.98 19.9 w F51 – Pan-STARRS 1, Haleakala MPS 476350
2013 09 09.48740 00 46 21.598 -04 28 24.83 19.8 w F51 – Pan-STARRS 1, Haleakala MPS 476350
2013 09 09.50213 00 46 20.904 -04 28 25.72 19.9 w F51 – Pan-STARRS 1, Haleakala MPS 476350
2013 09 10.312745 00 45 44.09 -04 29 16.5 19.8 V H21 – Astronomical Research Observatory, Westfield MPS 476350
2013 09 10.318528 00 45 43.81 -04 29 16.5 19.5 V H21 – Astronomical Research Observatory, Westfield MPS 476350
2013 09 10.324431 00 45 43.58 -04 29 16.9 19.4 V H21 – Astronomical Research Observatory, Westfield MPS 476350
2013 09 10.330337 00 45 43.29 -04 29 17.6 19.7 V H21 – Astronomical Research Observatory, Westfield MPS 476350
2013 09 15.30985 00 41 44.23 -04 34 20.3 20.3 V 703 – Catalina Sky Survey MPS 476350
2013 09 15.31486 00 41 43.97 -04 34 20.1 20.8 V 703 – Catalina Sky Survey MPS 476350
2013 09 15.31978 00 41 43.80 -04 34 19.5 19.4 V 703 – Catalina Sky Survey MPS 476350
2013 09 15.32479 00 41 43.53 -04 34 20.7 19.3 V 703 – Catalina Sky Survey MPS 476350
2013 09 27.45792 00 30 56.877 -04 44 15.94 19.4 r F51 – Pan-STARRS 1, Haleakala MPS 478847
2013 09 27.46884 00 30 56.252 -04 44 16.33 19.4 r F51 – Pan-STARRS 1, Haleakala MPS 478847
2013 09 27.48052 00 30 55.586 -04 44 16.60 19.2 i F51 – Pan-STARRS 1, Haleakala MPS 478847
2013 09 27.49251 00 30 54.899 -04 44 16.98 19.2 i F51 – Pan-STARRS 1, Haleakala MPS 478847
2013 09 29.47411 00 29 05.267 -04 45 13.97 19.5 w F51 – Pan-STARRS 1, Haleakala MPS 478847
2013 09 29.48732 00 29 04.518 -04 45 14.21 19.5 w F51 – Pan-STARRS 1, Haleakala MPS 478847
2013 09 30.70290 00 27 57.22 -04 45 42.3 19.9 R D29 – Purple Mountain Observatory, XuYi Station MPS 487177
2013 09 30.71880 00 27 56.35 -04 45 42.4 20.3 R D29 – Purple Mountain Observatory, XuYi Station MPS 487177
2013 09 30.73471 00 27 55.45 -04 45 42.3 20.0 R D29 – Purple Mountain Observatory, XuYi Station MPS 487177
2013 10 04.29030 00 24 39.77 -04 46 23.0 19.4 V 703 – Catalina Sky Survey MPS 478847
2013 10 04.30054 00 24 39.33 -04 46 22.7 18.9 V 703 – Catalina Sky Survey MPS 478847
2013 10 04.30843 00 24 38.72 -04 46 21.2 19.5 V 703 – Catalina Sky Survey MPS 478847
2013 10 04.31629 00 24 38.38 -04 46 22.5 19.3 V 703 – Catalina Sky Survey MPS 478847
2013 10 04.47873 00 24 29.435 -04 46 21.64 20.2 g F51 – Pan-STARRS 1, Haleakala MPS 480217
2013 10 04.47935 00 24 29.393 -04 46 21.60 20.0 g F51 – Pan-STARRS 1, Haleakala MPS 480217
2013 10 04.49018 00 24 28.781 -04 46 21.67 20.1 g F51 – Pan-STARRS 1, Haleakala MPS 480217
2013 10 04.49080 00 24 28.743 -04 46 21.59 20.2 g F51 – Pan-STARRS 1, Haleakala MPS 480217
2013 10 06.25667 00 22 53.05 -04 46 16.2 20.0 V 703 – Catalina Sky Survey MPS 480217
2013 10 06.26162 00 22 52.76 -04 46 17.3 20.5 V 703 – Catalina Sky Survey MPS 480217
2013 10 06.26672 00 22 52.45 -04 46 16.2 19.3 V 703 – Catalina Sky Survey MPS 480217
2013 10 06.27175 00 22 52.26 -04 46 15.7 19.4 V 703 – Catalina Sky Survey MPS 480217
2013 10 08.41955 00 20 57.277 -04 45 45.29 20.3 g F51 – Pan-STARRS 1, Haleakala MPS 480217
2013 10 08.43124 00 20 56.649 -04 45 45.14 20.5 g F51 – Pan-STARRS 1, Haleakala MPS 480217
2013 10 12.23923 00 17 39.35 -04 43 43.7 20.0 V 703 – Catalina Sky Survey MPS 480217
2013 10 12.24616 00 17 38.94 -04 43 44.4 19.7 V 703 – Catalina Sky Survey MPS 480217
2013 10 12.25311 00 17 38.64 -04 43 43.8 20.1 V 703 – Catalina Sky Survey MPS 480217
2014 01 25.23226 00 36 08.649 +05 28 11.71 21.4 w F51 – Pan-STARRS 1, Haleakala MPS 500182
2014 01 25.23751 00 36 08.963 +05 28 14.47 21.3 w F51 – Pan-STARRS 1, Haleakala MPS 500182
2014 01 25.24277 00 36 09.282 +05 28 17.25 21.4 w F51 – Pan-STARRS 1, Haleakala MPS 500182
